Location: New Canada
(47.1017°N, 68.5042°W)
Time: 02:22:58
(UTC+00:00)

COSMOS 1818 DEB - Pass Details

Date: 30 November 2023
Orbit: 754 x 785 km, 65.0° (Epoch: 12 November)

Event Time Altitude Azimuth Distance (km) Brightness Sun altitude
Rises 22:01:37 0° 252° (WSW) 3,251 ? -12.3°
Reaches altitude 10° 22:04:20 10° 263° (W) 2,330 ? -12.7°
Maximum altitude 22:08:58 29° 323° (NW) 1,409 ? -13.5°
Drops below altitude 10° 22:13:38 10° 23° (NNE) 2,350 ? -14.2°
Enters shadow 22:14:01 - 25° (NNE) 2,473 ? -14.3°
